N20X KCLL-KDWH

Flight info

Callsign N20X
Flight time 0h 26m
Altitude 5000
Route BAZBL BAZBL1
Aircraft BE58/L-SDFGRY/C

Departure

Time 2026-04-23 21:15
Airport Easterwood Field (KCLL)

Arrival

Time 2026-04-23 21:42
Airport David Wayne Hooks Memorial Airport (KDWH)
Time Latitude Longitude Altitude Speed Heading
2026-04-23 21:04 30.59093 -96.35951 327 ft 0 kts 83°
2026-04-23 21:08 30.59070 -96.35953 318 ft 7 kts 231°
2026-04-23 21:09 30.59037 -96.35987 318 ft 6 kts 190°
2026-04-23 21:09 30.58989 -96.35980 318 ft 9 kts 171°
2026-04-23 21:09 30.58906 -96.35959 318 ft 15 kts 164°
2026-04-23 21:09 30.58803 -96.35944 318 ft 13 kts 172°
2026-04-23 21:10 30.58730 -96.35930 318 ft 8 kts 175°
2026-04-23 21:10 30.58675 -96.35929 318 ft 8 kts 178°
2026-04-23 21:10 30.58589 -96.35911 318 ft 15 kts 169°
2026-04-23 21:10 30.58501 -96.35893 318 ft 10 kts 171°
2026-04-23 21:11 30.58444 -96.35886 318 ft 7 kts 173°
2026-04-23 21:11 30.58406 -96.35878 318 ft 4 kts 169°
2026-04-23 21:11 30.58383 -96.35873 318 ft 2 kts 169°
2026-04-23 21:11 30.58380 -96.35872 318 ft 0 kts 169°
2026-04-23 21:12 30.58346 -96.35864 318 ft 10 kts 167°
2026-04-23 21:12 30.58284 -96.35848 318 ft 7 kts 168°
2026-04-23 21:12 30.58247 -96.35839 318 ft 5 kts 168°
2026-04-23 21:12 30.58200 -96.35828 318 ft 9 kts 169°
2026-04-23 21:13 30.58130 -96.35811 318 ft 12 kts 167°
2026-04-23 21:13 30.58042 -96.35788 319 ft 13 kts 167°
2026-04-23 21:13 30.57964 -96.35774 318 ft 10 kts 172°
2026-04-23 21:13 30.57891 -96.35757 318 ft 10 kts 167°
2026-04-23 21:14 30.57832 -96.35739 318 ft 8 kts 147°
2026-04-23 21:14 30.57794 -96.35779 318 ft 12 kts 266°
2026-04-23 21:14 30.57793 -96.35859 318 ft 7 kts 305°
2026-04-23 21:14 30.57844 -96.35873 318 ft 10 kts 350°
2026-04-23 21:15 30.58067 -96.35921 318 ft 68 kts 351°
2026-04-23 21:15 30.58729 -96.36082 393 ft 115 kts 348°
2026-04-23 21:15 30.59530 -96.36273 790 ft 117 kts 347°
2026-04-23 21:15 30.60356 -96.36453 1158 ft 128 kts 345°
2026-04-23 21:16 30.61239 -96.36690 1618 ft 136 kts 344°
2026-04-23 21:16 30.62159 -96.36481 2049 ft 136 kts 50°
2026-04-23 21:16 30.62347 -96.35586 2620 ft 108 kts 124°
2026-04-23 21:16 30.61938 -96.34905 3205 ft 102 kts 129°
2026-04-23 21:17 30.61561 -96.34218 3729 ft 100 kts 130°
2026-04-23 21:17 30.61181 -96.33547 4243 ft 99 kts 131°
2026-04-23 21:17 30.60808 -96.32896 4744 ft 98 kts 133°
2026-04-23 21:17 30.60370 -96.32165 4901 ft 128 kts 132°
2026-04-23 21:18 30.59932 -96.31131 4905 ft 157 kts 112°
2026-04-23 21:18 30.59853 -96.29801 4904 ft 173 kts 89°
2026-04-23 21:18 30.60064 -96.28391 4901 ft 181 kts 84°
2026-04-23 21:18 30.60313 -96.26945 4899 ft 184 kts 84°
2026-04-23 21:19 30.60558 -96.25489 4902 ft 184 kts 84°
2026-04-23 21:19 30.60800 -96.24026 4894 ft 186 kts 86°
2026-04-23 21:19 30.61038 -96.22545 4885 ft 187 kts 85°
2026-04-23 21:19 30.61281 -96.21074 4890 ft 185 kts 84°
2026-04-23 21:20 30.61520 -96.19608 4883 ft 184 kts 85°
2026-04-23 21:20 30.61757 -96.18152 4884 ft 184 kts 85°
2026-04-23 21:20 30.61992 -96.16695 4896 ft 185 kts 85°
2026-04-23 21:20 30.62228 -96.15227 4881 ft 185 kts 84°
2026-04-23 21:21 30.62469 -96.13761 4874 ft 184 kts 85°
2026-04-23 21:21 30.62706 -96.12300 4873 ft 184 kts 85°
2026-04-23 21:21 30.62942 -96.10846 4874 ft 184 kts 84°
2026-04-23 21:21 30.63178 -96.09385 4868 ft 184 kts 85°
2026-04-23 21:22 30.63413 -96.07926 4866 ft 183 kts 85°
2026-04-23 21:22 30.63500 -96.06474 4874 ft 178 kts 102°
2026-04-23 21:22 30.63151 -96.05113 4868 ft 174 kts 121°
2026-04-23 21:22 30.62467 -96.04000 4869 ft 171 kts 137°
2026-04-23 21:23 30.61647 -96.02970 4853 ft 171 kts 136°
2026-04-23 21:23 30.60856 -96.01949 4856 ft 170 kts 137°
2026-04-23 21:23 30.60068 -96.00944 4846 ft 170 kts 137°
2026-04-23 21:23 30.59273 -95.99934 4844 ft 170 kts 137°
2026-04-23 21:24 30.58476 -95.98923 4832 ft 169 kts 137°
2026-04-23 21:24 30.57684 -95.97913 4825 ft 169 kts 136°
2026-04-23 21:24 30.56887 -95.96899 4814 ft 171 kts 136°
2026-04-23 21:24 30.56085 -95.95880 4804 ft 171 kts 136°
2026-04-23 21:25 30.55283 -95.94861 4795 ft 170 kts 136°
2026-04-23 21:25 30.54482 -95.93842 4790 ft 171 kts 137°
2026-04-23 21:25 30.53680 -95.92824 4787 ft 171 kts 137°
2026-04-23 21:25 30.52882 -95.91810 4779 ft 170 kts 136°
2026-04-23 21:26 30.52086 -95.90798 4773 ft 170 kts 137°
2026-04-23 21:26 30.51292 -95.89791 4772 ft 168 kts 137°
2026-04-23 21:26 30.50504 -95.88790 4773 ft 169 kts 137°
2026-04-23 21:26 30.49707 -95.87781 4760 ft 170 kts 136°
2026-04-23 21:27 30.48882 -95.86815 4759 ft 167 kts 144°
2026-04-23 21:27 30.47984 -95.85958 4761 ft 168 kts 144°
2026-04-23 21:27 30.47094 -95.85088 4761 ft 167 kts 144°
2026-04-23 21:27 30.46198 -95.84214 4760 ft 168 kts 144°
2026-04-23 21:28 30.45307 -95.83344 4764 ft 168 kts 143°
2026-04-23 21:28 30.44410 -95.82469 4766 ft 168 kts 143°
2026-04-23 21:28 30.43514 -95.81597 4767 ft 168 kts 143°
2026-04-23 21:28 30.42922 -95.81021 4771 ft 167 kts 143°
2026-04-23 21:29 30.42668 -95.80773 4773 ft 167 kts 143°
2026-04-23 21:29 30.41774 -95.79902 4780 ft 168 kts 143°
2026-04-23 21:29 30.40875 -95.79027 4789 ft 169 kts 143°
2026-04-23 21:29 30.39978 -95.78157 4792 ft 171 kts 144°
2026-04-23 21:30 30.39069 -95.77271 4804 ft 171 kts 144°
2026-04-23 21:30 30.38162 -95.76386 4813 ft 170 kts 144°
2026-04-23 21:30 30.37252 -95.75503 4819 ft 171 kts 144°
2026-04-23 21:30 30.36339 -95.74615 4823 ft 171 kts 143°
2026-04-23 21:31 30.35443 -95.73706 4827 ft 173 kts 135°
2026-04-23 21:31 30.34861 -95.72472 4828 ft 176 kts 119°
2026-04-23 21:31 30.34363 -95.71217 4831 ft 167 kts 121°
2026-04-23 21:31 30.33858 -95.70037 4837 ft 161 kts 122°
2026-04-23 21:32 30.33362 -95.68890 4859 ft 157 kts 122°
2026-04-23 21:32 30.32873 -95.67763 4830 ft 154 kts 122°
2026-04-23 21:32 30.32388 -95.66654 4567 ft 155 kts 122°
2026-04-23 21:32 30.31916 -95.65575 4132 ft 154 kts 122°
2026-04-23 21:33 30.31438 -95.64469 3734 ft 153 kts 122°
2026-04-23 21:33 30.30963 -95.63370 3357 ft 152 kts 122°
2026-04-23 21:33 30.30496 -95.62285 2991 ft 149 kts 121°
2026-04-23 21:33 30.30034 -95.61221 2617 ft 147 kts 123°
2026-04-23 21:34 30.29574 -95.60165 2193 ft 149 kts 122°
2026-04-23 21:34 30.28969 -95.59237 1905 ft 138 kts 144°
2026-04-23 21:34 30.28222 -95.58675 1885 ft 122 kts 158°
2026-04-23 21:34 30.27428 -95.58381 1872 ft 117 kts 170°
2026-04-23 21:35 30.26639 -95.58351 1885 ft 113 kts 184°
2026-04-23 21:35 30.25882 -95.58504 1942 ft 108 kts 178°
2026-04-23 21:35 30.25164 -95.58315 1884 ft 109 kts 165°
2026-04-23 21:35 30.24426 -95.58066 1806 ft 109 kts 166°
2026-04-23 21:36 30.22860 -95.57876 1711 ft 114 kts 175°
2026-04-23 21:36 30.22070 -95.57830 1652 ft 111 kts 173°
2026-04-23 21:36 30.21331 -95.57628 1759 ft 111 kts 165°
2026-04-23 21:37 30.20556 -95.57433 1868 ft 115 kts 171°
2026-04-23 21:37 30.19761 -95.57255 1946 ft 117 kts 169°
2026-04-23 21:37 30.18968 -95.57052 1977 ft 124 kts 170°
2026-04-23 21:37 30.18083 -95.56983 1927 ft 131 kts 174°
2026-04-23 21:38 30.17164 -95.56906 1870 ft 133 kts 174°
2026-04-23 21:38 30.16265 -95.56820 1818 ft 127 kts 171°
2026-04-23 21:38 30.15409 -95.56655 1813 ft 124 kts 169°
2026-04-23 21:38 30.14606 -95.56542 1768 ft 108 kts 171°
2026-04-23 21:39 30.13886 -95.56442 1575 ft 102 kts 171°
2026-04-23 21:39 30.13173 -95.56320 1384 ft 103 kts 171°
2026-04-23 21:39 30.12471 -95.56252 1219 ft 100 kts 171°
2026-04-23 21:39 30.11787 -95.56175 1047 ft 100 kts 170°
2026-04-23 21:40 30.11087 -95.56020 1037 ft 104 kts 171°
2026-04-23 21:40 30.10341 -95.55923 903 ft 114 kts 172°
2026-04-23 21:40 30.09552 -95.55809 724 ft 113 kts 171°
2026-04-23 21:40 30.08775 -95.55703 521 ft 113 kts 171°
2026-04-23 21:41 30.08015 -95.55586 370 ft 108 kts 170°
2026-04-23 21:41 30.07274 -95.55481 235 ft 108 kts 171°
2026-04-23 21:41 30.06567 -95.55372 146 ft 89 kts 169°
2026-04-23 21:41 30.06067 -95.55292 148 ft 60 kts 176°
2026-04-23 21:42 30.05975 -95.55226 153 ft 7 kts 359°
2026-04-23 21:42 30.06050 -95.55235 153 ft 17 kts 356°
2026-04-23 21:42 30.06183 -95.55257 149 ft 21 kts 357°
2026-04-23 21:42 30.06333 -95.55277 145 ft 23 kts 354°
2026-04-23 21:43 30.06438 -95.55260 145 ft 9 kts 70°
2026-04-23 21:43 30.06470 -95.55145 147 ft 18 kts 92°
2026-04-23 21:43 30.06508 -95.55092 146 ft 8 kts 357°
2026-04-23 21:43 30.06546 -95.55078 145 ft 0 kts 343°